Theta_e
286 286 285 285 285 285 284 284 285 287 289 289 290 291 289 288 285 282 280 281 281 281 284 283 283 283 285 288 288 287 286 289 290 289 289 288 288 291 294 296 296 296 296 296 297 297 297 297 297 298 298 298 299 300 299 299 300 301 302 302 303 305 304 305 304 304 306 306 306 307 307 308 308 308
283 283 283 282 282 283 282 282 282 283 285 286 287 288 289 290 286 286 283 282 284 283 284 283 282 285 287 286 287 287 287 290 289 288 288 288 288 291 292 294 294 294 295 296 296 296 296 297 297 297 296 297 298 299 299 299 300 300 301 303 304 302 302 304 304 304 303 305 305 305 307 307 308 308
282 282 282 282 282 282 282 282 282 282 282 283 284 286 288 288 287 286 285 282 283 284 282 284 284 285 286 286 286 287 286 288 289 287 287 287 289 290 290 291 292 293 295 295 295 295 296 296 296 296 296 296 297 298 298 298 298 299 300 301 302 302 301 299 300 301 302 303 305 305 305 306 306 307
282 282 282 281 281 281 281 281 281 281 281 281 281 281 283 285 286 286 284 282 281 284 283 284 285 284 284 285 285 285 286 287 288 286 286 287 288 287 287 289 291 292 293 294 293 294 295 295 296 296 295 296 297 297 297 297 297 298 299 300 301 300 301 299 300 300 299 299 301 301 302 303 304 304
281 281 281 281 281 281 281 281 280 280 280 280 280 281 281 281 281 283 282 281 280 282 284 283 283 284 284 284 285 284 284 285 286 287 286 287 287 287 287 287 289 290 291 291 292 293 294 294 294 295 294 294 295 295 296 296 297 297 297 295 299 300 299 300 301 301 298 299 301 301 302 302 302 303
281 281 281 280 281 281 280 280 280 280 280 280 280 280 280 280 280 281 281 280 280 279 282 282 283 283 283 282 284 283 283 284 285 285 286 286 286 286 286 286 287 289 290 291 292 293 293 293 293 293 292 294 293 294 297 295 296 297 297 295 296 298 299 300 300 299 298 299 300 302 300 300 302 304
281 281 280 279 281 280 280 279 280 280 280 279 279 280 280 279 280 280 280 280 279 279 280 282 281 282 283 282 282 283 284 284 285 284 284 285 286 286 286 286 286 288 289 291 292 292 293 293 293 293 293 293 293 294 294 293 294 295 295 295 295 295 296 297 296 297 298 299 300 300 301 301 300 301
281 281 280 280 279 280 279 279 279 279 279 279 279 279 280 279 280 280 280 280 280 280 280 281 281 282 281 282 283 284 285 284 284 284 284 285 284 285 285 284 284 286 290 291 291 292 292 292 292 292 292 292 293 293 293 293 294 294 294 294 294 295 295 296 296 296 295 298 299 301 301 301 301 301
281 280 280 280 280 280 279 279 279 279 279 279 279 279 279 279 280 280 280 280 281 281 280 280 281 282 282 283 283 283 283 283 283 283 283 283 283 283 284 284 285 287 289 289 290 290 291 291 291 292 292 292 292 293 293 292 293 292 292 292 292 293 294 295 294 294 295 294 296 296 299 301 301 299
280 280 280 280 280 279 278 279 279 279 279 279 279 279 279 279 280 279 280 281 281 281 281 281 280 282 281 281 282 283 282 281 280 281 282 282 282 282 282 283 284 285 285 285 286 287 288 289 290 291 291 292 292 292 292 292 292 291 291 292 292 293 294 294 294 295 295 295 296 297 297 299 300 300
280 280 280 279 279 278 278 279 278 279 279 279 279 279 279 280 280 280 281 281 281 281 281 281 282 281 281 281 280 281 282 281 281 280 279 279 282 282 282 282 284 285 285 287 288 288 288 289 288 289 290 291 291 291 291 291 291 290 290 291 292 293 293 294 294 293 293 295 295 295 296 296 300 302
278 279 279 279 278 278 278 278 279 279 279 279 279 279 279 280 281 281 281 281 281 280 280 280 280 280 280 280 280 281 280 279 279 280 280 278 280 281 283 283 283 284 285 284 285 286 287 287 288 289 289 289 290 290 290 289 289 289 290 291 292 292 292 293 293 293 294 294 295 295 294 296 303 304
278 278 278 278 277 279 282 283 283 283 283 280 279 280 281 282 281 281 281 281 280 280 280 279 280 279 279 279 278 278 278 278 278 280 281 280 281 282 282 283 284 284 283 283 284 284 284 284 284 285 285 285 287 287 288 288 288 289 291 292 292 292 293 292 293 293 293 294 294 293 293 293 294 296
278 278 277 278 281 281 281 282 282 283 283 283 282 281 281 281 280 280 280 279 279 279 278 278 279 278 277 278 278 278 280 281 281 281 281 280 281 282 281 283 284 285 284 283 282 283 285 284 284 285 284 285 285 285 285 285 287 289 292 292 292 292 292 293 292 293 295 294 293 293 293 292 292 292
277 277 277 277 278 279 280 279 281 281 282 282 282 283 283 283 282 280 279 279 280 279 278 279 279 278 278 279 279 279 280 281 281 281 281 281 281 280 279 277 281 285 284 282 281 282 285 284 283 283 283 284 284 284 284 288 289 290 290 291 291 291 292 290 291 294 293 292 292 292 292 292 292 292
276 276 276 277 278 277 278 278 277 279 280 282 282 283 283 284 284 284 282 280 279 279 278 278 278 279 278 279 280 280 280 280 281 281 281 281 280 279 279 279 278 282 284 282 281 281 284 284 283 282 282 283 284 284 287 288 289 289 290 290 291 291 289 289 291 292 293 293 292 292 291 291 291 291
276 276 276 276 277 277 279 277 277 277 278 281 283 283 283 283 283 283 284 284 282 281 279 279 278 279 279 278 280 281 281 282 280 281 280 281 281 280 279 280 280 282 284 282 280 279 281 282 281 280 282 283 283 283 285 287 289 289 289 290 290 289 290 291 291 291 291 291 290 291 291 291 290 290
276 275 276 275 276 276 276 276 277 278 280 281 281 281 281 281 281 282 283 282 282 282 280 280 278 280 281 280 281 282 283 281 280 280 280 281 280 280 279 281 282 283 284 281 279 277 279 281 280 280 281 282 282 282 284 287 288 290 289 289 289 290 290 290 290 290 290 290 290 290 290 290 289 289
276 275 276 275 275 275 275 276 279 280 281 281 281 280 280 280 280 281 281 280 280 280 281 281 281 281 282 282 281 282 283 282 282 282 281 281 281 281 282 280 280 280 282 281 278 274 278 281 279 279 280 281 281 281 283 286 290 290 289 290 290 290 289 289 290 290 290 290 289 289 289 289 289 288
276 276 275 275 275 275 275 278 281 282 282 281 280 279 279 279 280 279 281 282 283 282 282 282 281 281 281 283 282 283 283 283 283 283 283 282 281 278 276 275 276 277 279 280 278 276 276 279 277 277 279 280 280 279 279 285 290 290 290 290 289 289 290 290 290 289 289 289 289 289 289 288 288 287
275 275 275 275 275 275 275 279 282 283 282 280 279 278 278 278 277 276 278 282 283 283 283 283 283 283 284 284 284 285 285 283 283 280 278 277 278 275 273 273 274 274 276 278 279 275 274 276 276 276 278 279 279 277 278 281 288 289 289 289 289 289 289 289 289 289 289 288 288 288 287 287 286 285
276 276 277 277 275 276 277 281 282 283 281 279 278 278 277 276 275 276 279 280 280 282 281 281 281 282 282 283 283 283 283 283 281 277 275 277 277 273 273 271 272 273 274 276 277 274 274 275 276 275 277 278 278 277 277 279 281 287 288 289 288 289 289 289 288 288 287 287 287 286 286 285 283 281
276 276 276 277 277 277 279 282 282 282 281 279 278 277 276 275 275 277 279 278 277 277 276 277 278 278 280 280 279 280 281 281 280 279 278 278 275 272 272 271 271 270 271 275 277 272 273 273 275 275 274 274 277 277 275 276 277 279 282 283 284 287 287 287 287 287 286 286 285 285 284 284 282 279
274 274 273 275 278 279 281 281 281 281 281 279 278 277 275 275 275 279 278 278 277 276 276 276 277 278 279 279 279 278 277 278 279 279 278 277 275 272 271 271 271 269 270 274 276 273 273 274 272 275 274 272 272 274 274 274 275 276 278 278 278 281 283 284 284 285 285 285 285 284 283 282 281 278
273 272 272 275 277 280 281 280 280 280 280 280 278 277 276 277 279 280 277 276 277 276 276 276 277 277 277 277 276 276 277 277 278 277 277 275 274 272 271 270 270 270 271 274 278 274 271 272 271 273 274 273 272 272 273 273 274 274 275 276 276 277 278 278 279 280 283 284 284 284 283 282 282 278
273 274 275 275 278 280 279 279 279 280 280 280 278 278 280 280 280 277 276 275 275 275 276 276 275 275 274 274 274 275 276 276 276 275 274 273 272 272 272 271 270 269 270 274 277 273 271 270 271 272 273 272 272 272 271 271 272 272 273 274 274 275 276 277 277 278 278 278 279 280 280 282 281 280
273 275 275 277 278 278 278 278 279 279 279 277 277 279 279 278 278 276 275 275 275 275 275 274 273 273 273 272 273 274 275 275 275 273 273 272 271 271 272 273 273 272 273 274 274 272 271 270 273 272 273 273 271 270 269 269 269 271 271 271 271 272 273 273 273 274 274 275 276 280 281 281 281 281
275 275 276 277 277 277 277 278 278 278 277 276 277 277 276 276 275 274 273 273 274 274 273 272 271 271 272 272 273 273 274 274 273 272 272 271 271 271 271 271 272 273 273 272 272 272 272 271 273 274 276 273 272 269 266 269 270 270 268 269 270 270 270 271 271 271 271 272 272 273 273 272 274 274
276 277 278 276 276 276 276 276 276 274 274 274 274 274 274 272 271 272 272 272 272 271 270 270 270 271 272 272 273 274 274 273 273 271 271 271 271 270 270 270 271 271 272 272 272 272 273 274 275 274 273 273 271 270 270 268 269 268 269 268 266 267 269 269 269 268 268 268 268 269 269 270 270 271
277 276 275 275 275 274 273 271 269 268 269 271 272 272 270 268 269 270 270 270 269 269 269 269 269 270 271 272 274 275 274 272 271 270 269 269 268 268 268 267 268 268 270 272 272 272 272 274 274 273 272 272 271 270 269 267 266 268 268 267 266 267 267 267 267 267 267 266 267 267 268 268 268 268
271 271 271 270 272 271 272 271 270 269 269 266 266 265 266 266 268 270 269 269 268 268 268 269 269 270 272 273 273 272 271 270 270 270 268 267 267 267 267 265 265 266 269 271 272 271 271 272 272 273 270 269 270 269 269 269 266 266 266 267 267 264 265 266 266 266 266 266 266 266 267 267 267 268
267 265 269 268 265 264 264 264 262 261 262 264 264 264 264 265 268 269 269 269 268 268 268 269 270 270 271 271 271 271 271 270 270 269 267 266 265 266 266 265 265 266 267 270 271 272 271 271 270 270 270 270 268 268 268 267 266 266 265 266 266 265 266 265 265 265 266 266 264 264 264 265 265 266
264 262 261 261 262 261 262 261 260 260 260 261 262 262 263 264 266 266 265 265 265 266 266 267 268 269 270 270 271 270 270 269 269 268 266 265 264 265 265 264 265 266 266 268 269 271 271 270 270 270 269 269 268 268 267 265 265 266 265 265 265 264 264 265 265 265 266 264 263 263 263 264 265 265
257 259 258 259 260 260 258 259 259 260 260 260 260 261 264 265 264 264 264 264 264 264 265 266 268 269 269 269 270 270 269 269 268 268 267 264 264 262 263 263 264 265 266 267 268 269 270 271 270 270 270 269 269 269 267 266 264 265 265 264 264 262 263 263 264 264 265 264 263 262 262 263 264 265
258 257 258 259 258 259 258 258 258 259 259 259 260 261 262 263 263 263 263 263 263 263 264 266 267 268 269 269 269 269 269 268 267 266 264 262 263 262 263 264 264 265 265 265 266 268 269 270 270 269 269 269 268 268 271 268 265 264 264 263 263 262 262 263 264 264 264 263 264 261 261 262 263 264
258 256 257 257 257 257 257 258 258 258 257 258 258 260 261 261 261 261 261 262 262 263 264 264 265 267 268 268 269 269 269 268 267 266 264 263 262 262 262 263 263 263 263 263 264 265 267 269 270 269 267 266 265 264 263 269 269 265 263 262 262 262 262 263 263 263 263 262 263 262 261 260 261 262
256 257 257 256 256 256 256 256 255 256 256 256 258 259 260 259 259 260 261 262 261 263 263 264 264 266 267 268 269 269 269 268 266 266 264 261 260 260 261 262 262 262 261 262 263 264 265 266 268 268 267 264 262 260 261 264 268 269 264 263 262 263 262 262 261 260 261 261 261 262 261 260 260 262
255 257 256 256 256 255 256 256 256 256 255 256 257 258 258 258 259 259 260 259 260 261 262 262 264 265 266 267 268 268 268 267 266 265 264 261 260 260 260 261 261 261 261 261 262 262 263 264 265 267 267 264 262 261 261 261 261 264 268 264 262 262 263 262 260 259 259 260 261 261 262 261 261 260
254 255 256 254 255 254 254 255 255 255 254 255 256 256 257 257 257 258 258 259 260 260 261 262 263 264 265 266 268 268 267 266 265 265 264 263 261 260 260 260 260 260 261 261 260 260 261 261 262 263 266 266 264 264 264 261 261 262 266 268 263 261 261 261 259 259 259 259 260 261 261 263 267 269
256 256 254 255 254 254 254 254 253 253 254 255 255 255 255 257 257 257 257 259 260 260 260 262 263 263 263 265 266 267 267 266 265 265 264 264 264 262 260 261 261 260 259 260 259 260 260 261 262 262 263 264 264 264 264 264 264 264 265 267 269 265 261 260 260 259 259 259 260 260 258 259 257 258
255 253 253 253 253 253 253 253 253 253 253 253 254 256 256 255 256 256 258 259 260 259 260 261 261 262 262 264 265 266 266 266 265 264 265 264 264 263 263 264 262 262 260 258 257 259 260 260 262 267 264 264 265 266 264 262 260 261 262 263 268 269 267 265 261 260 259 258 258 258 257 255 255 253
253 252 252 251 252 252 252 252 252 252 252 253 253 254 254 255 256 260 259 259 258 259 259 260 261 262 262 263 264 266 266 265 264 264 264 263 262 261 262 260 258 260 260 258 256 257 259 260 261 262 262 262 261 261 259 260 259 260 261 262 263 268 269 268 267 265 261 259 258 256 254 255 253 253
254 251 252 253 253 252 251 252 252 251 252 252 253 253 254 255 255 256 256 257 257 258 259 260 260 261 261 262 263 265 266 265 265 264 263 262 262 261 259 258 259 259 259 258 258 258 259 260 261 261 261 261 261 261 260 260 260 260 260 261 262 263 264 269 269 269 268 268 267 261 254 255 255 253
251 251 252 252 251 252 251 251 250 251 252 252 253 253 253 254 255 256 256 257 258 259 260 260 260 260 261 262 264 265 266 266 265 264 263 262 262 260 259 259 260 261 260 259 258 258 258 259 259 260 259 258 259 261 259 260 259 260 259 259 260 261 261 262 264 267 268 269 270 270 270 269 268 269
251 251 251 251 251 251 251 250 250 251 251 252 253 253 255 254 256 256 257 258 260 261 260 260 260 260 261 262 263 263 264 266 266 264 263 262 261 261 261 260 260 260 259 259 259 258 258 258 258 259 259 259 259 260 260 260 259 258 258 258 257 257 255 255 259 259 260 260 265 270 271 270 270 269
Wind_Speed
4 5 6 5 3 4 3 3 3 4 4 3 3 3 3 4 5 8 10 18 5 5 1 1 4 1 4 9 7 6 5 9 11 9 9 10 10 17 24 28 28 28 28 28 29 30 31 32 32 32 32 33 33 35 34 35 36 36 37 36 36 37 36 36 37 36 36 36 37 36 37 38 35 35
4 3 4 4 4 3 4 4 3 3 4 4 4 3 3 3 4 4 8 15 8 6 5 3 3 9 11 5 9 8 8 12 14 10 11 11 12 21 25 26 26 28 29 30 29 31 31 32 33 33 34 34 35 35 36 35 37 36 37 38 38 39 37 36 35 35 35 36 36 36 36 37 37 35
4 5 5 4 5 4 5 5 5 4 4 4 3 3 3 3 2 6 7 10 6 4 10 9 4 7 14 11 9 9 7 11 15 13 13 13 17 21 17 23 26 28 30 30 31 31 33 33 33 34 33 33 34 36 35 37 37 38 38 39 39 38 36 35 36 35 35 34 36 36 36 36 37 36
5 5 6 5 5 4 4 4 4 3 3 3 3 2 2 2 3 4 6 9 18 14 8 12 13 6 11 11 9 14 14 11 15 12 13 15 19 12 12 18 24 26 28 30 30 32 32 33 33 33 33 35 36 36 36 37 37 37 37 36 36 35 33 33 33 34 33 33 31 34 35 36 35 35
5 5 4 4 4 3 4 4 3 3 3 3 2 2 1 2 4 3 5 10 15 18 7 6 10 10 10 12 11 14 14 17 16 14 11 12 13 12 11 12 18 24 28 31 32 33 33 32 32 32 34 34 36 35 35 35 36 36 35 35 36 36 34 35 32 32 33 34 33 34 34 33 33 34
4 3 4 4 4 3 3 3 4 3 4 4 3 3 3 3 4 3 3 6 10 17 18 14 12 11 4 11 10 11 14 16 16 19 16 11 12 11 10 9 12 22 26 29 32 32 33 33 32 34 36 34 33 34 35 34 34 35 34 36 35 35 34 33 34 33 34 36 35 33 35 37 34 31
3 4 4 4 4 3 4 3 3 3 3 3 3 4 3 3 4 4 4 6 10 14 17 15 13 13 14 11 12 11 10 11 12 15 15 14 13 12 12 12 12 17 25 28 30 33 33 32 33 34 32 33 34 33 34 34 35 35 36 35 35 34 34 34 34 36 33 34 33 34 34 34 35 34
4 4 4 4 4 4 4 4 4 3 3 3 3 3 3 3 4 4 4 5 8 11 15 17 14 13 14 15 12 11 12 12 12 11 14 11 11 12 13 13 13 16 27 30 30 31 31 30 31 31 33 33 33 33 35 35 35 36 35 36 36 36 32 34 32 34 34 33 35 32 32 36 38 35
4 4 4 4 4 4 5 5 6 5 6 5 4 5 5 4 4 4 4 5 6 9 13 16 14 13 11 11 12 7 11 13 12 12 13 13 13 14 13 11 11 19 25 25 27 27 28 27 28 30 31 32 32 33 34 34 34 34 35 35 35 35 35 33 34 33 35 33 31 35 34 34 37 38
3 3 3 3 3 4 4 5 5 5 6 5 5 5 6 5 5 5 5 6 7 9 11 12 16 13 14 13 11 12 12 13 15 12 13 14 13 13 16 15 11 8 8 12 16 18 16 20 25 29 30 31 32 33 34 34 34 33 33 34 34 34 34 32 35 33 32 34 34 33 35 36 39 42
3 3 3 3 3 3 3 4 5 5 5 5 6 6 6 5 6 7 7 7 8 9 11 10 9 12 10 10 16 13 10 12 10 14 13 14 10 11 12 17 13 12 13 15 22 21 19 18 17 22 30 30 31 32 31 32 33 32 31 32 33 33 34 35 32 33 34 32 33 34 36 37 33 33
3 3 2 2 3 3 3 3 4 5 6 5 5 5 5 6 8 8 8 7 8 9 9 9 11 9 12 11 9 11 11 12 10 6 11 16 17 14 13 14 16 15 11 13 15 17 17 16 17 22 23 23 25 28 26 27 27 29 30 30 32 33 33 35 34 32 35 32 34 24 12 30 3 17
3 3 3 3 3 4 6 8 8 8 9 6 6 5 6 7 8 8 8 7 7 8 8 10 8 10 11 9 11 12 13 13 15 16 12 13 12 14 15 15 13 10 12 13 12 14 13 15 14 13 13 14 20 20 24 21 26 26 29 32 33 33 34 36 37 34 31 30 4 24 27 30 34 34
3 3 3 3 5 7 7 8 10 11 12 11 8 8 7 8 8 8 8 8 7 9 11 10 10 12 12 13 10 10 11 13 14 13 13 15 14 14 13 14 12 10 8 13 14 15 13 11 13 13 13 14 15 13 15 15 20 27 32 33 33 32 31 33 38 33 10 22 25 30 31 34 31 34
3 3 3 3 4 4 5 4 9 12 12 12 12 13 13 11 10 9 10 10 9 9 9 10 9 9 13 13 10 10 14 12 14 14 13 14 13 13 14 17 15 5 11 15 14 15 12 10 13 15 14 15 14 14 14 25 33 33 32 32 32 29 29 24 17 28 30 25 26 28 34 35 33 33
2 3 3 3 3 3 5 6 5 7 11 12 13 14 14 14 15 14 11 11 11 10 11 11 10 10 10 14 12 12 11 13 13 14 14 13 14 15 16 16 16 13 11 13 14 16 13 11 13 14 14 14 14 15 23 32 33 33 33 30 28 27 7 13 22 24 29 29 30 31 28 30 31 32
2 3 4 3 4 3 7 6 5 6 7 10 12 14 14 13 14 15 16 16 12 11 11 12 13 11 12 14 11 10 13 14 14 15 13 13 11 13 14 14 12 14 11 12 13 16 16 10 12 13 13 14 15 17 21 32 34 32 26 26 17 6 18 27 25 29 29 30 29 29 31 32 33 34
2 3 3 4 4 4 5 6 7 8 8 8 8 7 7 8 10 13 14 15 16 13 10 11 13 13 11 12 14 13 13 14 14 13 14 13 14 16 16 16 14 12 9 10 12 16 16 12 11 13 14 14 15 15 23 35 35 23 15 11 20 17 25 28 28 29 28 28 33 33 34 33 33 34
2 2 3 3 3 4 5 6 9 9 9 9 8 8 8 8 7 7 7 6 7 8 8 9 11 11 10 12 13 13 11 13 13 13 16 15 16 16 13 15 12 10 8 10 12 14 14 11 14 13 14 14 14 13 19 31 26 28 27 26 26 27 26 26 26 27 29 31 33 33 32 33 31 32
2 2 3 3 4 4 5 9 14 14 12 10 11 11 9 8 6 5 7 13 13 12 11 10 11 12 15 19 16 16 16 13 12 13 12 13 10 11 13 14 12 8 6 7 10 9 12 11 12 13 12 12 11 13 14 21 25 29 29 27 26 26 24 26 30 30 30 31 32 32 32 31 32 32
2 2 3 3 4 5 5 10 16 17 17 9 11 12 12 9 8 7 6 9 13 16 18 20 22 22 24 24 24 24 25 19 15 13 14 12 11 13 12 14 13 11 10 9 5 9 11 9 11 13 12 10 8 12 13 13 18 27 26 27 26 24 28 29 30 30 31 31 30 30 30 31 31 31
3 3 6 6 4 5 6 13 16 17 13 8 9 11 12 14 12 11 9 8 8 13 15 16 17 19 19 20 21 21 21 22 18 11 13 13 12 13 11 13 13 13 9 6 9 9 7 10 9 10 11 8 3 11 11 13 14 16 22 30 28 28 28 29 29 28 28 28 27 28 28 27 22 15
3 2 4 7 7 7 9 16 16 17 13 8 8 9 11 12 13 11 11 12 14 15 14 12 12 10 12 11 10 12 23 23 16 10 10 9 10 13 12 11 13 14 9 6 10 9 10 10 10 8 9 8 3 8 10 11 12 12 10 12 17 27 28 28 28 27 28 27 28 27 26 24 19 12
2 2 2 4 8 10 13 15 15 15 15 9 7 7 8 10 12 11 12 12 12 13 12 13 12 12 11 9 8 10 12 12 12 12 9 9 9 10 12 10 9 9 11 11 11 8 8 7 9 9 5 5 4 7 9 10 11 11 11 12 12 17 19 21 23 29 27 27 28 27 25 23 17 11
2 2 2 3 7 12 14 14 14 13 13 12 7 7 6 9 14 15 10 14 17 12 11 11 10 11 10 10 9 9 8 9 10 10 10 8 8 9 10 9 9 8 12 11 16 8 7 7 9 9 5 1 2 3 5 8 10 10 11 10 11 11 10 11 9 12 21 27 28 27 26 25 24 16
2 3 4 4 8 13 13 12 12 12 11 12 6 8 14 17 17 12 9 10 9 9 8 9 9 10 11 12 10 9 9 8 9 11 9 9 8 8 8 8 9 9 12 13 19 9 7 8 5 6 4 1 3 3 3 7 7 8 9 10 10 9 9 8 9 10 10 10 12 16 19 25 24 25
2 3 5 6 11 12 12 11 11 10 11 8 8 14 14 15 16 12 7 9 9 8 9 10 10 10 10 11 11 11 11 10 11 10 10 9 9 9 9 9 8 9 10 11 11 9 7 7 7 5 4 1 3 4 6 4 5 6 10 10 11 10 9 8 10 10 9 10 11 21 22 26 27 27
3 4 4 6 12 11 11 11 10 10 9 9 13 14 15 15 13 7 8 7 8 9 8 8 8 9 9 10 11 11 10 11 11 11 11 10 9 8 8 10 9 7 8 9 10 9 7 8 7 6 5 4 2 4 5 4 5 6 8 7 10 10 9 9 9 11 11 10 9 9 8 9 9 12
3 6 9 10 9 9 10 11 10 8 10 13 13 14 14 12 6 7 7 8 8 8 8 8 8 8 8 9 9 10 11 10 9 8 9 10 9 8 7 6 6 6 6 8 9 9 7 7 5 6 7 5 6 4 4 5 4 5 4 6 8 8 8 9 9 10 9 10 10 10 8 8 8 8
6 7 7 8 7 8 8 6 4 4 6 12 13 14 12 6 6 6 7 8 9 8 8 9 9 9 10 10 10 9 9 9 10 9 10 10 10 10 10 9 8 7 7 8 10 10 10 8 6 6 9 8 6 7 5 7 7 7 6 9 7 7 8 8 7 9 10 10 11 11 8 8 9 7
2 3 4 3 6 6 10 9 8 7 8 6 6 5 5 5 6 6 7 8 8 9 9 9 8 9 9 9 8 8 9 8 8 8 9 9 9 9 8 6 7 8 8 8 10 11 10 9 9 7 9 8 8 7 6 6 7 5 7 6 4 7 2 6 8 9 10 7 7 7 7 8 8 10
2 3 5 5 3 2 3 4 3 3 3 5 5 5 5 5 6 8 11 11 7 8 8 8 9 8 8 9 8 8 7 8 8 8 8 7 8 8 7 6 7 7 7 8 9 11 11 10 9 9 9 7 8 6 7 8 8 7 7 6 7 6 5 6 6 6 6 8 12 10 7 7 8 8
3 3 4 2 4 4 4 4 3 3 3 4 5 5 5 5 6 6 6 7 8 8 9 8 8 9 9 9 8 8 8 8 8 7 7 7 6 7 5 5 5 7 7 8 7 8 8 9 10 10 10 10 9 7 5 8 7 6 6 5 6 6 5 5 4 4 4 10 9 9 9 8 8 7
4 4 3 3 3 3 4 4 4 4 4 4 6 5 7 6 6 7 7 7 7 8 9 9 9 9 9 8 8 8 8 8 8 7 7 7 6 5 6 6 6 6 6 6 6 6 5 4 5 7 10 11 12 13 9 7 6 6 5 5 5 6 4 4 5 5 6 6 8 9 8 7 7 7
4 3 2 2 2 2 3 3 4 3 4 4 5 6 6 5 6 7 7 8 8 9 8 9 8 8 8 8 8 8 8 9 8 7 6 5 6 5 5 6 6 6 6 6 6 6 5 5 3 2 4 5 8 10 16 10 5 6 5 6 4 4 5 4 4 5 5 5 5 10 7 6 6 6
3 2 1 0 1 1 3 4 4 3 3 3 4 4 5 6 5 6 6 8 8 8 8 8 9 9 8 8 7 7 8 8 8 7 7 7 6 6 5 5 4 5 5 4 5 6 5 4 4 3 2 3 4 5 6 13 10 3 4 3 3 4 4 4 5 5 6 5 4 5 7 6 4 5
2 1 0 0 1 1 2 5 4 3 2 3 3 3 4 5 6 5 7 8 7 7 8 9 9 9 8 8 8 7 7 8 8 7 6 6 5 5 5 5 6 5 5 5 4 5 5 4 4 3 2 4 5 5 2 3 9 11 3 4 3 3 2 3 5 7 5 4 5 5 5 4 3 4
2 1 1 1 1 2 3 4 4 3 3 3 3 3 3 4 5 6 7 6 6 6 7 8 8 9 8 9 8 7 7 7 6 6 6 5 5 6 5 5 5 5 5 4 5 5 5 4 5 3 1 3 6 5 3 1 3 6 6 3 4 2 1 3 6 5 5 4 5 4 4 6 4 1
2 2 1 1 1 2 4 5 4 4 4 3 3 3 4 5 5 6 6 6 6 6 7 7 7 8 9 9 8 7 7 8 8 7 6 6 5 5 5 5 5 5 5 5 5 5 6 6 5 4 2 3 3 2 4 4 3 2 4 8 3 3 3 5 6 4 3 4 4 4 3 1 3 8
2 1 2 1 1 3 4 6 5 5 4 4 3 3 3 5 5 6 6 7 6 7 7 7 8 9 8 8 9 7 6 6 6 6 6 5 5 4 4 4 3 4 4 5 6 6 6 6 6 4 3 4 5 6 7 7 5 3 5 4 5 4 3 2 3 5 4 2 2 4 4 3 4 4
3 2 2 1 1 3 5 5 6 5 4 5 4 3 3 4 5 5 5 6 7 7 7 7 7 8 8 9 9 8 7 6 5 5 5 4 5 5 5 5 3 4 3 3 4 4 5 4 5 6 5 5 5 5 4 5 5 3 5 5 5 6 6 6 5 4 5 2 4 5 5 3 1 2
3 3 2 1 3 6 6 5 6 4 4 4 4 5 4 4 4 8 7 8 6 6 6 6 7 7 8 8 8 8 7 6 6 6 5 5 5 4 4 3 3 4 3 2 2 3 5 4 5 4 3 2 3 5 4 5 6 3 2 2 5 6 7 7 6 8 8 6 5 5 4 2 2 2
3 3 2 2 3 6 6 6 5 4 5 4 4 4 4 4 4 5 5 6 6 5 6 6 6 7 7 8 8 8 7 7 6 6 5 4 4 4 3 1 1 1 1 2 2 2 4 4 4 4 3 4 3 2 6 4 3 3 3 3 4 3 5 8 12 12 10 8 7 4 2 3 4 1
5 3 2 3 5 6 6 6 5 3 3 3 5 3 4 4 5 5 5 6 6 6 6 7 7 7 8 8 8 7 7 7 6 6 5 4 3 2 1 0 0 1 1 2 3 4 4 4 4 4 3 3 1 4 6 5 4 4 3 2 2 4 5 4 6 9 10 12 12 6 5 4 4 2
4 3 3 4 6 6 6 5 5 3 2 3 3 4 4 3 4 4 5 5 5 6 6 6 7 7 7 8 8 8 7 8 8 6 5 3 2 1 0 1 1 1 1 2 2 3 3 4 4 3 4 3 2 3 5 5 5 5 2 3 3 3 3 4 4 4 5 4 10 14 5 6 8 8
Wind_Direction
49 46 42 51 46 26 16 36 44 25 19 5 356 346 341 327 305 322 315 313 338 293 232 289 305 119 39 342 326 328 305 308 318 319 315 312 308 314 315 318 318 317 317 318 318 316 313 310 309 308 308 307 306 306 305 304 302 300 299 297 297 296 295 294 293 292 290 289 289 288 288 288 288 286
52 52 47 40 40 13 20 20 17 32 13 4 352 348 334 326 302 294 305 299 305 288 312 167 294 325 326 350 324 329 327 322 326 319 317 313 313 314 315 315 317 317 318 319 319 317 313 311 310 310 310 309 308 306 306 305 304 302 301 299 297 294 293 294 293 294 293 291 291 292 290 289 288 286
52 39 35 26 28 16 11 5 4 6 16 353 357 332 329 311 292 293 295 300 279 73 321 307 334 327 321 332 328 321 326 323 323 322 318 314 311 312 312 312 314 318 319 320 320 317 314 311 310 310 310 309 308 309 307 306 304 303 301 300 297 297 299 300 300 297 295 294 296 294 293 291 291 289
47 39 31 20 18 3 11 5 357 349 340 348 336 323 305 301 288 289 288 272 284 302 305 303 311 344 321 324 336 331 325 322 321 318 315 310 311 311 311 312 312 316 320 320 319 317 313 312 311 311 312 312 311 308 307 304 302 300 301 301 302 301 304 303 303 302 299 296 298 298 297 294 291 289
43 40 34 17 6 12 10 350 342 345 340 341 337 311 306 282 283 285 282 287 293 299 297 291 303 325 332 322 345 328 325 323 322 317 310 308 309 309 309 307 307 313 321 321 318 316 314 313 313 312 314 312 311 308 306 305 303 304 302 303 305 305 304 305 301 304 302 304 305 303 301 296 293 292
40 43 32 11 6 10 7 339 346 337 339 347 349 335 331 300 296 274 287 287 292 296 309 316 319 312 343 314 328 326 324 321 318 321 322 315 309 306 303 300 306 313 318 319 317 316 314 313 311 313 313 310 309 308 307 308 306 304 302 303 304 303 301 301 302 304 307 305 306 303 300 300 297 291
23 35 29 11 2 358 1 355 337 333 337 334 335 324 311 304 288 281 257 287 295 302 302 308 313 320 323 321 320 321 313 308 310 311 316 318 316 313 312 314 311 309 314 315 314 311 311 310 312 313 310 309 308 307 307 307 304 302 302 302 302 301 299 299 299 300 302 304 302 302 298 294 293 290
32 26 17 5 359 356 1 351 348 342 337 335 332 315 309 292 292 279 268 252 276 295 302 308 314 318 320 319 323 322 314 317 317 311 305 299 302 304 309 310 309 309 312 315 310 307 306 309 310 310 309 307 308 308 309 307 305 305 304 304 303 301 300 298 298 300 300 301 299 293 294 291 289 287
36 22 19 350 355 357 358 347 347 340 339 336 330 323 312 307 291 283 274 269 269 286 294 299 304 310 306 305 308 315 319 321 314 310 306 309 310 309 300 298 297 302 307 307 304 302 304 306 307 307 305 306 308 307 305 306 305 305 305 304 303 300 300 296 298 298 299 297 295 292 289 289 284 281
40 32 6 354 358 358 357 336 326 328 326 325 323 317 313 303 297 293 286 276 279 279 283 291 302 309 317 318 315 325 324 315 312 311 311 311 314 313 311 309 306 295 301 308 306 301 302 305 302 303 303 305 307 305 305 305 305 303 302 300 299 298 296 298 299 300 299 297 290 291 291 291 284 278
44 34 17 356 356 352 338 322 317 315 314 314 310 305 305 302 302 301 296 293 289 288 292 291 287 298 301 311 312 316 311 301 302 309 315 309 304 306 304 308 310 311 309 302 295 293 296 301 301 297 299 304 304 302 302 304 302 301 298 297 297 296 297 298 299 298 298 290 293 297 296 286 266 245
36 20 10 1 344 336 312 307 304 311 308 308 308 303 301 303 304 303 302 302 303 302 296 293 303 298 303 307 295 301 311 312 306 310 318 312 315 311 305 302 306 308 306 304 307 303 309 311 302 297 299 299 297 298 299 299 298 298 296 295 295 297 300 303 301 299 296 291 293 295 357 20 61 148
36 15 5 354 332 316 314 317 319 320 325 326 320 313 310 312 310 309 307 304 300 293 292 295 295 302 303 302 313 319 323 322 316 314 310 297 297 301 303 301 290 291 305 303 301 302 312 311 309 304 304 302 302 301 300 299 299 297 298 300 304 307 310 309 306 303 290 287 264 102 63 62 58 88
24 7 0 337 321 326 325 323 326 331 330 327 322 318 321 317 314 310 307 305 304 304 305 304 310 310 307 312 318 311 306 305 304 302 307 307 310 303 296 293 300 316 309 309 310 305 308 309 308 309 308 303 304 303 305 301 295 300 307 311 309 310 311 314 311 294 261 120 108 95 93 77 75 72
358 351 345 335 329 329 329 326 328 331 327 324 321 318 315 313 313 314 313 308 310 305 297 300 301 299 303 302 308 307 307 303 306 308 307 306 306 306 313 313 310 336 339 318 310 303 312 320 315 310 309 308 309 308 302 302 308 310 309 307 307 309 318 318 25 81 96 92 87 85 88 90 83 79
355 340 342 338 344 340 333 328 320 315 314 316 317 316 317 317 314 310 306 309 311 312 309 307 304 306 301 304 308 306 308 309 308 306 304 304 306 309 310 306 307 320 332 314 311 303 314 323 311 311 313 312 310 309 309 310 308 306 306 306 307 320 351 87 70 71 79 84 85 85 85 87 86 85
352 347 344 346 342 333 326 320 312 304 298 298 309 317 318 315 312 310 307 305 303 304 300 301 301 303 306 302 301 308 310 311 301 303 304 309 306 303 299 298 305 319 328 317 315 310 318 328 320 315 315 316 319 317 315 309 308 309 310 311 333 61 102 82 78 78 74 74 73 76 80 83 87 88
355 345 347 339 334 326 322 316 310 303 303 310 312 312 311 306 304 304 300 302 300 298 291 290 293 297 296 297 303 307 306 303 303 303 303 305 308 306 298 302 310 315 334 325 325 311 317 327 323 321 321 325 322 321 318 317 316 322 337 62 92 89 84 84 81 81 79 78 81 80 81 80 81 81
348 332 335 328 313 317 314 307 316 319 320 318 316 312 306 299 294 291 294 292 290 288 284 281 282 294 304 304 306 305 302 300 302 305 304 311 302 298 309 305 308 318 328 331 325 303 310 332 329 325 325 325 326 330 327 335 39 64 79 83 82 80 76 81 85 85 84 84 85 83 83 82 82 84
351 335 327 324 314 307 305 300 320 331 330 325 319 314 307 294 287 280 292 299 307 308 308 309 311 311 308 309 310 313 314 314 314 313 311 299 305 326 314 308 314 311 323 332 307 310 322 334 325 321 321 325 334 338 339 344 44 61 67 70 74 77 80 83 84 84 85 85 84 84 82 83 85 84
6 343 328 315 304 301 291 306 329 332 335 325 319 313 311 310 307 292 282 290 309 319 320 318 315 315 315 316 318 323 326 326 333 333 321 321 330 317 317 312 316 320 329 323 352 344 314 328 327 320 322 330 343 348 344 346 27 60 67 71 71 72 78 79 81 82 83 83 83 84 85 85 84 83
10 337 324 315 298 300 298 324 331 333 336 327 319 314 317 319 319 318 320 317 321 325 321 316 313 311 312 318 324 324 330 339 340 322 317 318 319 320 318 312 314 311 313 318 3 328 315 320 325 320 322 320 15 0 348 1 356 24 59 64 67 69 69 71 71 74 75 78 80 81 82 81 77 71
1 333 300 323 329 321 321 330 333 335 336 325 319 321 318 316 319 320 331 333 332 335 332 327 323 315 323 326 323 331 338 333 330 321 313 321 325 319 317 315 315 313 315 335 350 324 320 325 317 333 326 336 13 11 358 5 14 16 14 38 53 64 69 71 74 76 78 78 79 79 78 78 77 76
342 310 282 296 322 329 329 334 335 335 333 328 322 319 313 312 315 329 331 333 331 322 319 317 318 317 324 325 335 338 326 323 329 335 334 332 327 318 311 309 305 297 300 310 335 320 303 306 307 321 290 293 329 350 2 12 25 24 23 38 42 36 48 59 72 75 76 77 77 77 75 72 70 77
328 305 293 269 320 327 334 336 333 330 330 331 328 306 304 318 321 327 330 327 325 315 314 315 320 327 329 333 332 322 316 324 331 334 337 333 328 317 306 303 298 283 291 297 323 327 308 307 298 305 305 347 352 343 354 23 23 29 30 36 46 38 48 46 47 56 71 75 77 78 78 74 72 72
321 322 319 299 319 332 336 333 330 333 337 341 332 326 329 327 329 333 325 313 312 313 315 323 330 332 333 331 328 326 325 332 336 334 331 332 324 311 298 295 299 296 303 312 325 317 300 293 285 298 295 320 19 338 25 41 22 20 34 36 36 33 35 45 58 64 65 69 70 76 77 74 73 74
318 303 306 307 326 335 334 333 338 343 352 351 340 340 338 338 334 329 313 313 315 319 327 332 330 330 329 327 327 328 332 337 339 331 327 325 321 311 302 298 290 289 298 310 317 308 286 271 266 256 279 124 140 63 31 23 13 13 45 36 34 31 27 34 50 50 39 49 55 67 73 75 76 75
303 297 307 324 332 333 336 341 348 353 357 352 348 346 344 342 335 320 319 320 323 324 327 328 325 325 325 321 320 327 331 336 334 327 325 325 322 316 313 313 312 306 316 319 318 312 278 260 258 243 219 158 139 94 112 44 65 49 63 47 45 35 27 40 52 55 52 53 52 45 41 34 41 61
268 305 326 336 336 341 346 356 357 3 356 352 352 351 351 345 321 330 329 330 333 329 329 326 320 315 318 312 310 315 325 325 321 324 325 324 321 322 317 313 314 318 334 339 335 334 320 327 10 55 64 49 85 73 76 88 57 20 17 60 42 23 34 46 58 62 61 59 59 52 44 51 45 46
311 326 342 340 349 358 357 5 357 6 352 352 354 355 351 330 333 335 339 339 336 326 322 322 320 316 313 316 315 318 326 328 334 337 334 332 334 341 341 344 347 345 348 354 359 357 356 4 18 61 76 59 50 75 69 92 77 69 47 75 105 68 41 44 38 57 60 61 58 58 38 42 49 46
43 10 355 351 15 12 6 7 7 4 354 345 345 341 337 332 334 341 348 341 328 323 321 318 313 309 307 305 314 329 333 332 333 342 336 334 333 336 336 345 342 345 348 4 16 14 13 15 26 39 75 75 66 56 62 64 73 55 38 34 25 88 50 51 60 64 72 67 55 42 32 41 50 50
48 49 5 18 23 7 6 351 345 336 340 337 343 342 333 331 339 348 345 335 324 321 316 303 304 303 312 319 325 326 330 334 335 341 341 338 331 334 334 356 358 347 348 6 14 21 27 26 35 47 52 56 74 67 65 66 66 71 74 57 67 63 51 62 66 59 52 71 67 54 37 28 54 52
53 54 34 24 21 17 11 345 336 329 342 344 345 339 338 342 346 350 346 338 334 327 317 310 310 316 319 319 321 324 330 337 339 342 338 337 340 332 349 2 347 352 356 1 6 15 27 34 43 58 64 57 48 44 64 77 50 50 69 63 65 63 43 34 46 50 51 69 69 70 60 40 31 41
82 40 44 22 22 5 356 335 336 339 341 340 351 348 351 353 351 352 344 337 332 324 313 305 313 319 317 317 323 328 332 330 339 344 348 333 338 348 353 355 351 348 356 353 356 358 352 23 40 60 71 69 62 50 41 67 79 59 55 57 57 71 38 38 39 37 52 77 97 82 68 50 34 24
87 76 38 10 2 355 335 320 322 328 342 347 350 344 344 347 351 348 340 337 330 325 319 320 318 316 317 320 323 330 334 335 334 337 343 346 343 355 349 357 349 352 357 356 350 346 342 333 345 3 67 82 71 56 49 44 72 74 69 50 30 55 52 35 48 41 54 52 70 92 81 65 43 14
79 102 89 317 321 345 339 308 311 322 340 341 336 332 344 343 342 342 334 332 325 320 322 321 319 317 319 318 321 328 335 337 337 341 344 352 350 349 352 354 346 342 349 0 344 338 337 343 358 4 18 54 72 58 13 30 45 0 79 85 28 49 53 55 50 46 45 50 34 89 92 88 60 17
108 85 137 242 299 330 295 289 294 306 324 333 329 335 338 329 327 325 320 322 316 323 326 324 315 316 317 317 319 332 339 344 340 339 340 341 342 347 354 345 347 343 348 353 346 344 347 353 7 24 24 66 73 69 8 312 37 44 41 94 99 53 73 68 72 56 27 44 56 56 94 101 82 18
140 157 194 269 278 280 289 289 299 307 315 329 321 320 319 312 313 315 316 318 321 323 325 321 316 317 316 317 323 334 340 339 333 336 337 340 352 352 350 340 336 343 333 339 1 358 353 6 18 359 59 122 134 136 141 353 4 356 32 68 99 101 41 85 67 71 52 28 69 70 79 84 91 196
160 167 239 238 272 290 291 289 296 301 301 304 316 321 316 313 314 317 322 321 321 323 321 319 319 322 319 317 324 333 337 339 342 342 338 334 341 345 340 346 346 344 353 352 356 7 10 22 4 342 347 154 143 145 121 125 64 314 54 89 83 79 33 93 99 83 80 83 75 70 61 8 63 39
204 175 199 206 272 279 272 274 284 282 290 292 300 299 309 313 314 313 310 317 323 324 319 316 323 324 318 319 322 325 326 335 331 328 326 326 324 338 338 340 350 352 5 1 6 3 15 13 356 340 349 72 90 99 107 107 111 49 28 44 96 129 154 136 111 118 88 82 105 91 73 39 41 337
181 190 230 193 232 263 253 263 266 277 285 291 298 309 310 300 303 300 300 313 320 318 320 321 322 322 320 320 320 323 326 328 327 324 321 322 322 328 348 355 357 356 18 14 355 2 2 329 327 34 51 82 109 125 84 66 51 6 29 9 40 105 120 127 145 149 136 139 87 89 78 75 83 1
184 197 206 182 215 249 245 247 261 267 280 286 298 301 307 307 294 305 309 310 306 307 310 317 323 324 323 322 317 316 320 322 323 326 327 324 322 327 351 25 15 341 11 18 332 312 299 321 335 346 338 19 26 63 76 117 119 106 32 13 356 40 81 103 99 111 125 135 123 94 73 34 28 33
202 191 185 214 239 245 244 243 248 253 267 283 290 290 300 302 303 306 308 311 312 313 318 321 322 324 321 319 316 314 315 320 321 320 320 320 322 325 337 358 14 344 343 300 296 305 332 342 352 355 7 47 41 89 128 130 113 109 95 67 49 11 27 78 111 122 130 122 112 131 168 165 129 177
204 193 196 218 240 247 245 242 240 242 249 265 273 286 284 292 304 303 301 301 309 316 320 323 324 324 321 318 317 314 320 318 324 322 318 319 321 321 316 295 330 347 329 337 332 342 342 352 3 360 43 28 9 114 132 132 118 111 102 64 359 18 37 359 40 52 49 40 39 66 97 137 163 216
205 181 203 238 245 250 247 240 235 241 240 260 275 280 287 289 288 291 291 288 301 313 321 324 324 323 319 319 319 323 321 325 323 310 304 310 318 319 295 290 309 323 336 323 341 334 357 351 343 4 50 26 32 100 114 115 123 128 88 89 66 24 0 349 39 44 24 345 359 9 85 75 67 87